Location: Владивосток
(43.1151°N, 131.8856°E)
Time: 22:17:34
(UTC+10:00)

ITAMSAT 1 - Visible Passes

Search period start: 13 April 2024 00:00
Search period end: 23 April 2024 00:00
Orbit: 783 x 794 km, 98.8° (Epoch: 13 April)

Date Brightness Start Highest point End Pass type
(mag) Time Alt. Az. Time Alt. Az. Time Alt. Az.
13 Apr 7.8 21:44:44 21° S 21:48:16 71° WSW 21:53:31 10° NNW visible
14 Apr 7.7 21:14:27 17° SSE 21:18:27 63° ENE 21:23:38 10° N visible
14 Apr 10.0 22:55:08 10° SW 22:58:19 17° W 23:01:39 10° NW visible
15 Apr 8.4 20:44:08 10° SE 20:48:46 35° ENE 20:53:28 10° N visible
15 Apr 9.2 22:24:50 16° SSW 22:28:11 31° W 22:32:49 10° NW visible
16 Apr 8.1 21:54:32 19° S 21:58:11 58° W 22:03:22 10° NNW visible
17 Apr 7.6 21:24:14 17° SSE 21:28:19 77° ENE 21:33:34 10° N visible
17 Apr 10.2 23:05:44 10° WSW 23:08:19 14° W 23:10:55 10° WNW visible
18 Apr 8.2 20:53:56 11° SE 20:58:34 42° ENE 21:03:29 10° N visible
18 Apr 9.5 22:34:37 13° SW 22:38:08 26° W 22:42:28 10° NW visible
19 Apr 8.9 20:24:53 10° ESE 20:28:59 24° ENE 20:33:05 10° NNE visible
19 Apr 8.5 22:04:20 17° SSW 22:08:05 48° W 22:13:10 10° NNW visible
20 Apr 7.6 21:34:02 16° SSE 21:38:11 88° WSW 21:43:28 10° NNW visible
20 Apr 10.3 23:17:02 10° WSW 23:18:20 11° W 23:19:38 10° WNW visible
21 Apr 8.0 21:03:43 12° SE 21:08:25 50° ENE 21:13:28 10° N visible
21 Apr 9.7 22:44:25 11° SW 22:48:07 21° W 22:52:03 10° NW visible
22 Apr 8.7 20:34:22 10° ESE 20:38:46 28° ENE 20:43:11 10° N visible
22 Apr 8.8 22:14:07 15° SSW 22:18:02 39° W 22:22:55 10° NNW visible
